EW6612 Weather Reports


Display with metric or nautical units.
time (UTC)temp
F
wind
direction
speed
MPH
gust
MPH
rain 1hr
in
rain 24hr
in
rain mn
in
humidity
%
barometer
mb
20210224195106 55 165 0.0 0.0 0.00 0.00 0.00 83 1025.0
20210224193914 56 159 0.0 0.0 0.00 0.00 0.00 82 1025.1
20210224192925 56 157 0.0 0.0 0.00 0.00 0.00 81 1025.4
20210224191902 57 157 0.0 0.0 0.00 0.00 0.00 81 1025.5
20210224190906 57 157 0.0 0.0 0.00 0.00 0.00 78 1025.4
20210224185857 58 157 0.0 0.0 0.00 0.00 0.00 75 1025.2
20210224185054 59 155 0.0 0.0 0.00 0.00 0.00 73 1025.2
20210224183856 60 155 0.0 0.0 0.00 0.00 0.00 70 1025.3
20210224182905 61 155 2.0 4.0 0.00 0.00 0.00 67 1025.2
20210224181850 62 157 2.0 5.0 0.00 0.00 0.00 65 1025.2
20210224180846 63 148 3.0 8.0 0.00 0.00 0.00 62 1025.2
20210224175843 64 146 4.0 8.0 0.00 0.00 0.00 61 1025.1
20210224174908 64 132 3.0 6.0 0.00 0.00 0.00 61 1025.2
20210224173844 65 171 3.0 7.0 0.00 0.00 0.00 60 1025.2
20210224172854 65 130 3.0 7.0 0.00 0.00 0.00 59 1025.1
20210224171847 65 160 3.0 10.0 0.00 0.00 0.00 59 1025.2
20210224170850 65 147 4.0 9.0 0.00 0.00 0.00 59 1025.2
20210224165840 66 125 5.0 9.0 0.00 0.00 0.00 60 1025.2
20210224164841 66 182 5.0 11.0 0.00 0.00 0.00 57 1025.2
20210224163821 66 120 5.0 12.0 0.00 0.00 0.00 54 1025.1
20210224162825 66 186 6.0 14.0 0.00 0.00 0.00 53 1025.2
20210224161820 67 281 7.0 16.0 0.00 0.00 0.00 53 1025.1
20210224160823 67 138 8.0 16.0 0.00 0.00 0.00 52 1025.0
20210224155817 68 113 8.0 15.0 0.00 0.00 0.00 55 1025.0
20210224154827 67 156 9.0 19.0 0.00 0.00 0.00 54 1025.1
20210224153816 67 153 10.0 20.0 0.00 0.00 0.00 52 1025.2
20210224152818 67 150 6.0 11.0 0.00 0.00 0.00 54 1025.3
20210224151813 67 188 8.0 21.0 0.00 0.00 0.00 56 1025.4
20210224150809 67 188 10.0 18.0 0.00 0.00 0.00 53 1025.4
20210224145812 67 157 7.0 16.0 0.00 0.00 0.00 54 1025.6
20210224144911 67 169 9.0 20.0 0.00 0.00 0.00 53 1025.6
20210224143811 67 197 10.0 23.0 0.00 0.00 0.00 54 1025.6
20210224142910 67 163 12.0 21.0 0.00 0.00 0.00 56 1025.9
20210224141810 66 194 12.0 22.0 0.00 0.00 0.00 56 1025.9
20210224140810 66 136 11.0 21.0 0.00 0.00 0.00 60 1025.9
20210224135807 66 147 13.0 22.0 0.00 0.00 0.00 59 1026.1
20210224134804 66 130 13.0 21.0 0.00 0.00 0.00 60 1026.2
20210224133804 65 148 14.0 28.0 0.00 0.00 0.00 59 1026.5
20210224132955 65 177 15.0 25.0 0.00 0.00 0.00 60 1026.6
20210224131801 65 193 10.0 21.0 0.00 0.00 0.00 57 1026.9
20210224130759 65 166 13.0 25.0 0.00 0.00 0.00 60 1027.1
20210224125759 65 140 13.0 23.0 0.00 0.00 0.00 60 1027.1
20210224124845 64 159 15.0 25.0 0.00 0.00 0.00 61 1027.2
20210224123813 64 159 13.0 28.0 0.00 0.00 0.00 60 1027.4
20210224122952 64 157 14.0 28.0 0.00 0.00 0.00 62 1027.7
20210224121803 63 178 14.0 28.0 0.00 0.00 0.00 65 1027.8
20210224120801 63 154 15.0 28.0 0.00 0.00 0.00 64 1028.3
20210224115758 63 150 12.0 21.0 0.00 0.00 0.00 63 1028.5
20210224114828 63 175 12.0 23.0 0.00 0.00 0.00 64 1028.9
20210224113755 62 154 12.0 21.0 0.00 0.00 0.00 62 1029.2
20210224112817 62 127 9.0 17.0 0.00 0.00 0.00 62 1029.1
20210224111757 62 148 11.0 20.0 0.00 0.00 0.00 62 1028.9
20210224110802 62 122 11.0 19.0 0.00 0.00 0.00 59 1029.0
20210224105804 62 167 7.0 18.0 0.00 0.00 0.00 60 1029.0
20210224104758 60 212 5.0 10.0 0.00 0.00 0.00 69 1028.9
20210224103757 59 97 10.0 16.0 0.00 0.00 0.00 67 1028.7
20210224102837 59 107 9.0 15.0 0.00 0.00 0.00 65 1028.6
20210224101750 59 152 9.0 15.0 0.00 0.00 0.00 64 1028.6
20210224100751 59 157 9.0 13.0 0.00 0.00 0.00 67 1028.6
20210224095753 59 155 8.0 11.0 0.00 0.00 0.00 65 1028.6
20210224094817 59 142 7.0 13.0 0.00 0.00 0.00 64 1028.8
20210224093749 59 136 6.0 10.0 0.00 0.00 0.00 69 1028.6
20210224092746 58 157 4.0 9.0 0.00 0.00 0.00 66 1028.5
20210224091756 57 118 2.0 6.0 0.00 0.00 0.00 68 1028.5
20210224090746 55 75 2.0 4.0 0.00 0.00 0.00 74 1028.3
20210224085747 55 59 3.0 5.0 0.00 0.00 0.00 72 1028.3
20210224084829 54 58 4.0 7.0 0.00 0.00 0.00 71 1028.1
20210224083742 53 76 4.0 8.0 0.00 0.00 0.00 74 1028.2
20210224082838 53 60 6.0 10.0 0.00 0.00 0.00 75 1028.2
20210224081732 52 74 8.0 12.0 0.00 0.00 0.00 76 1028.2
20210224080736 51 96 6.0 12.0 0.00 0.00 0.00 79 1028.0
20210224075731 48 133 5.0 8.0 0.00 0.00 0.00 83 1028.2
20210224074737 45 108 2.0 6.0 0.00 0.00 0.00 88 1028.3
20210224073729 44 154 0.0 0.0 0.00 0.00 0.00 89 1028.3
20210224072823 43 155 1.0 4.0 0.00 0.00 0.00 88 1028.5
20210224071716 43 114 0.0 6.0 0.00 0.00 0.00 90 1028.5
20210224070722 43 123 0.0 3.0 0.00 0.00 0.00 89 1028.5
20210224065717 44 96 0.0 0.0 0.00 0.00 0.00 87 1028.5
20210224064707 45 96 1.0 2.0 0.00 0.00 0.00 85 1028.6
20210224063658 46 96 1.0 4.0 0.00 0.00 0.00 81 1028.6
20210224062749 48 96 4.0 6.0 0.00 0.00 0.00 81 1028.4
20210224061655 48 136 6.0 10.0 0.00 0.00 0.00 81 1028.1
20210224060648 46 134 5.0 9.0 0.00 0.00 0.00 84 1028.2
20210224055653 46 112 5.0 8.0 0.00 0.00 0.00 85 1028.5
20210224054645 44 160 2.0 5.0 0.00 0.00 0.00 88 1028.8
20210224053652 44 160 0.0 4.0 0.00 0.00 0.00 88 1028.9
20210224052849 45 160 0.0 0.0 0.00 0.00 0.00 87 1029.0
20210224051639 46 160 1.0 4.0 0.00 0.00 0.00 85 1028.9
20210224050629 46 160 3.0 7.0 0.00 0.00 0.00 86 1028.9
20210224045626 46 160 2.0 7.0 0.00 0.00 0.00 88 1029.0
20210224044625 46 161 0.0 1.0 0.00 0.00 0.00 86 1028.9
20210224043619 46 161 1.0 5.0 0.00 0.00 0.00 86 1028.9
20210224042642 46 161 3.0 6.0 0.00 0.00 0.00 86 1029.0
20210224041606 46 161 1.0 5.0 0.00 0.00 0.00 85 1029.2
20210224040604 46 161 2.0 4.0 0.00 0.00 0.00 85 1029.2
20210224035602 46 161 3.0 5.0 0.00 0.00 0.00 85 1029.2
20210224034553 46 161 4.0 7.0 0.00 0.00 0.00 83 1029.2
20210224033552 47 175 3.0 6.0 0.00 0.00 0.00 83 1029.3
20210224032717 46 175 1.0 4.0 0.00 0.00 0.00 84 1029.4
20210224031549 47 175 2.0 4.0 0.00 0.00 0.00 82 1029.4
20210224030556 47 175 3.0 7.0 0.00 0.00 0.00 81 1029.5
20210224025552 47 166 0.0 0.0 0.00 0.00 0.00 82 1029.6
20210224024536 47 166 2.0 4.0 0.00 0.00 0.00 81 1029.7
20210224023535 47 166 3.0 7.0 0.00 0.00 0.00 80 1029.7
20210224022608 47 156 3.0 5.0 0.00 0.00 0.00 80 1029.8
20210224021530 47 139 4.0 7.0 0.00 0.00 0.00 79 1029.8
20210224020519 48 132 4.0 7.0 0.00 0.00 0.00 78 1029.9
20210224015523 48 134 4.0 7.0 0.00 0.00 0.00 77 1030.0
20210224014522 49 126 4.0 9.0 0.00 0.00 0.00 76 1029.9
20210224013509 49 146 4.0 8.0 0.00 0.00 0.00 76 1029.9
20210224012623 49 169 4.0 7.0 0.00 0.00 0.00 77 1030.0
20210224011530 48 145 4.0 7.0 0.00 0.00 0.00 79 1030.0
20210224010511 48 131 5.0 7.0 0.00 0.00 0.00 79 1030.1
20210224005455 48 142 4.0 8.0 0.00 0.00 0.00 79 1030.1
20210224004458 48 131 4.0 6.0 0.00 0.00 0.00 79 1030.0
20210224003452 48 126 3.0 5.0 0.00 0.00 0.00 80 1030.1
20210224002530 48 125 2.0 7.0 0.00 0.00 0.00 81 1030.1
20210224001456 48 150 0.0 0.0 0.00 0.00 0.00 82 1030.2
20210224000452 49 150 0.0 0.0 0.00 0.00 0.00 81 1030.1
20210223235442 49 151 0.0 0.0 0.00 0.00 0.00 80 1030.1
20210223234439 50 151 0.0 0.0 0.00 0.00 0.00 79 1030.2
20210223233425 50 151 0.0 0.0 0.00 0.00 0.00 78 1030.2
20210223232453 51 151 2.0 5.0 0.00 0.00 0.00 77 1030.2
20210223231417 51 147 4.0 7.0 0.00 0.00 0.00 77 1030.1
20210223230414 51 156 4.0 6.0 0.00 0.00 0.00 77 1030.2
20210223225415 52 170 4.0 6.0 0.00 0.00 0.00 76 1030.2
20210223224413 52 200 4.0 7.0 0.00 0.00 0.00 76 1030.2
20210223223354 52 198 4.0 6.0 0.00 0.00 0.00 78 1030.3
20210223222422 52 180 2.0 3.0 0.00 0.00 0.00 75 1030.3
20210223221356 54 180 2.0 4.0 0.00 0.00 0.00 69 1030.3
20210223220347 56 188 5.0 10.0 0.00 0.00 0.00 65 1030.3
20210223215340 57 132 6.0 10.0 0.00 0.00 0.00 62 1030.1
20210223214340 58 143 6.0 10.0 0.00 0.00 0.00 62 1030.1
20210223213340 57 146 6.0 9.0 0.00 0.00 0.00 62 1030.0
20210223212358 57 140 5.0 11.0 0.00 0.00 0.00 63 1030.0
20210223211341 57 171 5.0 9.0 0.00 0.00 0.00 65 1030.0
20210223210328 57 184 5.0 10.0 0.00 0.00 0.00 66 1029.9
20210223205311 57 173 5.0 9.0 0.00 0.00 0.00 67 1029.8
20210223204316 56 186 4.0 9.0 0.00 0.00 0.00 69 1030.0
20210223203311 56 174 2.0 6.0 0.00 0.00 0.00 70 1029.8
20210223202312 57 180 3.0 6.0 0.00 0.00 0.00 70 1029.7
20210223201308 58 166 4.0 8.0 0.00 0.00 0.00 67 1029.7
20210223200309 59 174 5.0 11.0 0.00 0.00 0.00 65 1029.7